Weather History for International Falls, MN

Change the Weather History Date:

Friday, March 22, 2013

  Actual Average Record
Temperature  
Mean Temperature 13 °F 27 °F  
Max Temperature 32 °F 38 °F 72 °F (2012)
Min Temperature -7 °F 16 °F -18 °F (1974)
Degree Days  
Heating Degree Days 52 38  
Month to date heating degree days 1157 958  
Since 1 July heating degree days 8714 8541  
Cooling Degree Days 0 0  
Month to date cooling degree days 0 0  
Year to date cooling degree days 0 0  
Moisture  
Dew Point 10 °F    
Average Humidity 71    
Maximum Humidity 87    
Minimum Humidity 54    
Precipitation  
Precipitation T in 0.04 in 0.30 in (1941)
Month to date precipitation 1.14 0.61  
Year to date precipitation 4.80 1.80  
Snow  
Snow T in 0.20 in 0.60 in (1978)
Month to date snowfall 14.6 5.6  
Since 1 July snowfall 84.9 62.4  
Snow Depth 28.00 in    
Sea Level Pressure  
Sea Level Pressure 30.14 in    
Wind  
Wind Speed 2 mph (NNE)    
Max Wind Speed 8 mph    
Max Gust Speed 10 mph    
Visibility 10 miles    
Events      
T = Trace of Precipitation, MM = Missing Value Source: NWS Daily Summary

Daily Weather History Graph

Daily Weather History Graph

Search for Another Location

Airport:

Trip Planner

Search our weather history database for the weather conditions in past years. The results will help you decide how hot, cold, wet, or windy it might be!

Date:

Astronomy

Mar. 22, 2013 Rise Set
Actual Time 7:11 AM CDT 7:29 PM CDT
Civil Twilight 6:40 AM CDT 8:01 PM CDT
Nautical Twilight 6:03 AM CDT 8:38 PM CDT
Astronomical Twilight 5:25 AM CDT 9:16 PM CDT
Moon 2:38 PM CDT 4:33 AM CDT
Length of Visible Light 13h 20m
Length of Day
12h 18m
Waxing Gibbous, 77% of the Moon is Illuminated
Mar 22
Waxing Gibbous
Mar 27
Full
Apr 2
Last Quarter
Apr 10
New
Apr 18
First Quarter

Hourly Weather History & Observations

Time (CDT) Temp. Windchill Dew Point Humidity Pressure Visibility Wind Dir Wind Speed Gust Speed Precip Events Conditions
12:55 AM 12.0 °F 4.1 °F 3.9 °F 70% 30.14 in 10.0 mi NNE 4.6 mph - N/A   Clear
1:55 AM 14.0 °F 6.5 °F 5.0 °F 67% 30.14 in 10.0 mi NNE 4.6 mph - N/A   Clear
2:55 AM 12.9 °F 6.9 °F 6.1 °F 74% 30.14 in 10.0 mi NNE 3.5 mph - N/A   Clear
3:55 AM 1.9 °F - -2.0 °F 83% 30.16 in 10.0 mi Calm Calm - N/A   Clear
4:55 AM -2.9 °F - -5.1 °F 90% 30.16 in 10.0 mi Calm Calm - N/A   Clear
5:55 AM -4.0 °F - -8.0 °F 83% 30.16 in 10.0 mi Calm Calm - N/A   Partly Cloudy
6:10 AM -2.2 °F - -7.6 °F 78% 30.07 in 10.0 mi Calm Calm - N/A   Mostly Cloudy
6:55 AM 1.9 °F - -2.0 °F 83% 30.17 in 10.0 mi Calm Calm - N/A   Overcast
7:55 AM 14.0 °F 8.2 °F 9.0 °F 80% 30.17 in 10.0 mi NE 3.5 mph - N/A   Overcast
8:28 AM 15.8 °F - 12.2 °F 86% 30.08 in 10.0 mi Calm Calm - N/A   Overcast
8:55 AM 18.0 °F 12.7 °F 12.9 °F 81% 30.16 in 10.0 mi ENE 3.5 mph - N/A   Overcast
9:09 AM 19.4 °F 10.4 °F 15.8 °F 86% 30.08 in 10.0 mi ENE 6.9 mph - N/A   Overcast
9:55 AM 19.9 °F 12.1 °F 16.0 °F 85% 30.16 in 10.0 mi ENE 5.8 mph - N/A   Overcast
10:55 AM 19.9 °F 14.9 °F 16.0 °F 85% 30.17 in 10.0 mi Variable 3.5 mph - N/A   Overcast
11:55 AM 21.0 °F 13.4 °F 17.1 °F 85% 30.17 in 10.0 mi NE 5.8 mph - N/A   Overcast
12:35 PM 21.2 °F - 17.6 °F 86% 30.08 in 10.0 mi Calm Calm - N/A   Overcast
12:55 PM 21.9 °F - 17.1 °F 82% 30.15 in 10.0 mi Calm Calm - N/A   Overcast
1:55 PM 24.1 °F - 18.0 °F 77% 30.15 in 10.0 mi Calm Calm - N/A   Overcast
2:55 PM 27.0 °F 20.5 °F 17.1 °F 66% 30.13 in 10.0 mi NNW 5.8 mph - N/A   Mostly Cloudy
3:05 PM 26.6 °F 20.0 °F 17.6 °F 69% 30.06 in 10.0 mi Variable 5.8 mph - N/A   Partly Cloudy
3:55 PM 30.0 °F - 17.1 °F 59% 30.13 in 10.0 mi Calm Calm - N/A   Clear
4:55 PM 30.0 °F 26.5 °F 17.1 °F 59% 30.13 in 10.0 mi NNW 3.5 mph - N/A   Clear
5:55 PM 32.0 °F - 17.1 °F 54% 30.14 in 10.0 mi Calm Calm - N/A   Clear
6:55 PM 28.9 °F 25.2 °F 17.1 °F 61% 30.15 in 10.0 mi North 3.5 mph - N/A   Clear
7:55 PM 21.9 °F - 15.1 °F 75% 30.15 in 10.0 mi Calm Calm - N/A   Clear
8:55 PM 12.9 °F - 9.0 °F 84% 30.15 in 10.0 mi Calm Calm - N/A   Clear
9:55 PM 16.0 °F 10.4 °F 10.0 °F 77% 30.15 in 10.0 mi North 3.5 mph - N/A   Clear
10:55 PM 17.1 °F 11.7 °F 12.0 °F 81% 30.15 in 10.0 mi North 3.5 mph - N/A   Clear
11:55 PM 19.9 °F 14.9 °F 12.9 °F 74% 30.15 in 10.0 mi NNE 3.5 mph - N/A   Clear